[[{"header":{"parameterUnit":"m.s-1","parameterCategory":1,"la1":30.2991,"la2":30.254,"lo1":-89.0895,"lo2":-89.0444,"dy":0.0017,"dx":0.0017,"nx":28,"ny":28,"refTime":"2024-07-12T03:00:00:Z","depth":0,"parameterNumber":2,"parameterNumberName":"U-component_of_WINDS"},"data":[0,0,0,0,0,0,0,0,0,0,0,0,0,0,0,0,0,0,0,0,0,0,0,0,0,0,0,0,0,0,0,0,0,0,0,0,0,0,0,0,0,0,0,0,0,0,0,0,0,0,0,0,0,0,0,0,0,0,3.5814,3.5814,0,3.5837,3.5838,3.5838,3.5731,3.5728,3.5725,3.5722,3.5749,3.5753,3.5756,0,0,0,0,0,0,0,0,0,0,0,0,0,3.5677,3.568,3.5814,3.5814,3.5814,3.5837,3.5838,3.5838,3.5732,3.5728,3.5724,3.5721,3.5748,3.5752,3.5757,0,0,0,0,0,0,0,0,0,0,0,0,0,3.5722,3.5681,3.5813,3.5764,3.576,3.5837,3.5838,3.5838,3.5733,3.5728,3.5723,3.5719,3.5747,3.5752,3.5757,3.5884,0,0,3.5774,3.5776,0,0,0,0,0,0,0,0,3.572,3.5727,3.5771,3.5767,3.5763,3.5776,3.5799,3.5854,3.5734,3.5743,3.5722,3.5717,3.5762,3.5766,3.5781,3.5886,3.5887,3.5774,3.5778,3.578,3.5781,0,0,0,0,0,0,0,3.5717,3.5726,3.5823,3.5772,3.5767,3.5741,3.5742,3.5809,3.5779,3.5742,3.5734,3.5738,3.5759,3.5776,3.5781,3.5887,3.5774,3.5779,3.5782,3.5784,3.6093,3.6098,0,0,0,0,0,0,3.572,3.5724,3.5822,3.5824,3.5729,3.5747,3.5748,3.5777,3.5778,3.5773,3.5742,3.5733,3.5769,3.5774,3.5781,3.5926,3.578,3.5785,3.5788,3.6088,3.6094,3.61,0,0,0,0,0,0,3.5717,3.573,3.5821,3.5772,3.5781,3.5754,3.5787,3.578,3.5796,3.5778,3.5772,3.5765,3.5765,3.5774,3.5858,3.5926,3.5787,3.5792,3.6083,3.609,3.6097,3.6221,0,0,0,0,0,0,3.5714,3.5729,3.5778,3.5773,3.5784,3.5898,3.5791,3.5784,3.5806,3.5794,3.5797,3.5794,3.5762,3.5851,3.5864,3.5931,3.5797,3.6076,3.6086,3.6095,3.621,3.6231,3.6249,0,0,0,0,0,3.5709,3.5813,3.5781,3.5793,3.5844,3.5902,3.5908,3.587,3.5812,3.5859,3.5847,3.5793,3.5917,3.586,3.5874,3.5944,3.6072,3.6083,3.6094,3.6202,3.6227,3.6249,0,0,0,0,0,0,3.5827,3.5812,3.5775,3.5881,3.5893,3.5884,3.5943,3.5899,3.5929,3.5917,3.5868,3.587,3.5963,3.5962,3.5899,3.6065,3.5984,3.5999,3.6062,3.6086,3.6105,3.6102,3.5801,0,0,0,0,0,3.5865,3.5914,3.5898,3.5992,3.6,3.5971,3.5995,3.5964,3.5975,3.5981,3.5975,3.5989,3.603,3.6058,3.6096,3.6211,3.6208,3.6266,3.6285,3.6301,3.6313,3.637,3.6394,3.6136,3.6136,3.6136,0,0,3.5945,3.5942,3.5976,3.6016,3.6022,3.6072,3.5976,3.6035,3.6071,3.599,3.6068,3.6064,3.6077,3.6176,3.6219,3.6178,3.6384,3.6315,3.6328,3.6332,3.6384,3.6409,3.643,3.6144,3.6142,3.6141,0,0,3.6114,3.6119,3.6195,3.6203,3.6213,3.6192,3.6211,3.6208,3.6202,3.6279,3.6218,3.6262,3.6336,3.6345,3.636,3.6531,3.6482,3.6545,3.6646,3.6702,3.6722,3.674,3.6798,3.6819,3.6558,3.6558,3.6559,0,3.6212,3.6285,3.6241,3.6302,3.632,3.6247,3.6324,3.6334,3.6357,3.6371,3.6325,3.6413,3.6417,3.6515,3.6556,3.6572,3.659,3.6543,3.6723,3.674,3.6756,3.681,3.6833,3.6566,3.6565,3.6564,3.6563,0,3.6402,3.6454,3.6515,3.6535,3.6561,3.663,3.6596,3.6628,3.6594,3.6579,3.6657,3.6659,3.6693,3.6715,3.6685,3.6809,3.6783,3.6731,3.6648,3.6789,3.6838,3.6859,3.6576,3.6573,3.6571,3.6569,0,0,3.6646,3.6639,3.6662,3.6669,3.6674,3.6713,3.6779,3.6811,3.6837,3.6855,3.6907,3.697,3.6921,3.6938,3.6908,3.6958,3.7088,3.6899,3.6898,3.6931,3.7221,3.7258,3.7283,3.7057,3.7061,3.7064,3.7219,0,3.6808,3.6917,3.6879,3.699,3.7036,3.6967,3.7023,3.7032,3.7019,3.7056,3.7042,3.7086,3.702,3.7029,3.7076,3.7063,3.7145,3.7051,3.7103,3.7105,3.7098,3.7309,3.7348,3.7495,3.7239,3.7242,3.7245,0,3.7012,3.7035,3.7151,3.7144,3.7162,3.7213,3.7238,3.7275,3.7283,3.727,3.7288,3.7246,3.7309,3.7229,3.7313,3.725,3.7269,3.7266,3.7271,3.7271,3.7181,3.7312,3.7541,3.7562,3.7276,3.7273,3.7271,0,3.7173,3.7234,3.7309,3.7318,3.7314,3.7351,3.7351,3.7355,3.7376,3.7398,3.7411,3.7442,3.7458,3.7482,3.745,3.7395,3.7538,3.7455,3.7527,3.7528,3.7558,3.7556,3.7789,3.7577,3.7576,3.7576,3.7575,0,3.7357,3.7429,3.7381,3.7427,3.7506,3.7461,3.7541,3.7533,3.7537,3.758,3.7524,3.7566,3.7521,3.7559,3.7535,3.7606,3.7615,3.7605,3.7597,3.7608,3.7609,3.7617,3.7605,3.7582,3.758,3.7579,3.7578,0,3.7549,3.752,3.7597,3.7586,3.7585,3.7643,3.7633,3.7675,3.7658,3.7713,3.7723,3.7697,3.7738,3.7708,3.775,3.7733,3.7826,3.7806,3.7823,3.7816,3.7887,3.788,3.8132,3.8161,3.7934,3.7936,3.7938,0,3.7666,3.7719,3.7713,3.7737,3.774,3.778,3.78,3.7759,3.7782,3.7794,3.7835,3.7871,3.7897,3.7966,3.795,3.7981,3.7959,3.8045,3.7963,3.7971,3.7955,3.7951,3.7954,3.8061,3.8063,3.8066,3.8067,0,3.7875,3.7858,3.7888,3.7914,3.7939,3.7957,3.7971,3.7995,3.7952,3.7982,3.8022,3.8042,3.8083,3.8119,3.8144,3.8144,3.8098,3.8094,3.8111,3.8121,3.8127,3.8121,3.7864,3.8087,3.8085,3.8084,3.8083,3.8082,3.8031,3.8073,3.8074,3.811,3.8115,3.8129,3.8167,3.8153,3.8186,3.8214,3.8189,3.8237,3.8241,3.827,3.8275,3.8312,3.8276,3.8303,3.8309,3.8315,3.8323,3.8124,3.8317,3.8316,3.8316,3.8315,3.8315,0,3.8234,3.823,3.8263,3.8283,3.8311,3.8265,3.8278,3.8303,3.8345,3.8354,3.838,3.8425,3.8459,3.8445,3.8475,3.8506,3.8486,3.8515,3.8511,3.8511,3.8355,3.8335,3.8531,3.8531,3.8531,3.8531,3.8531,3.8531,3.8342,3.841,3.8393,3.8463,3.846,3.8505,3.8515,3.8527,3.8533,3.8585,3.8612,3.8603,3.8602,3.863,3.8659,3.8654,3.8666,3.8702,3.8689,3.8544,3.8522,3.8502,3.8482,3.8706,3.8706,3.8841,3.8842,3.8843]},{"header":{"parameterUnit":"m.s-1","parameterCategory":1,"la1":30.2991,"la2":30.254,"lo1":-89.0895,"lo2":-89.0444,"dy":0.0017,"dx":0.0017,"nx":28,"ny":28,"refTime":"2024-07-12T03:00:00:Z","depth":0,"parameterNumber":3,"parameterNumberName":"V-component_of_WINDS"},"data":[0,0,0,0,0,0,0,0,0,0,0,0,0,0,0,0,0,0,0,0,0,0,0,0,0,0,0,0,0,0,0,0,0,0,0,0,0,0,0,0,0,0,0,0,0,0,0,0,0,0,0,0,0,0,0,0,0,0,2.0766,2.0767,0,2.0874,2.0875,2.0876,2.0882,2.088,2.0879,2.0878,2.0986,2.099,2.0994,0,0,0,0,0,0,0,0,0,0,0,0,0,2.0562,2.0566,2.0766,2.0767,2.0769,2.0873,2.0875,2.0876,2.0882,2.088,2.0879,2.0877,2.0985,2.099,2.0994,0,0,0,0,0,0,0,0,0,0,0,0,0,2.0658,2.0567,2.0766,2.0784,2.0787,2.0873,2.0875,2.0877,2.0882,2.088,2.0878,2.0877,2.0983,2.0989,2.0995,2.107,0,0,2.1014,2.1016,0,0,0,0,0,0,0,0,2.0653,2.0666,2.078,2.0783,2.0786,2.0862,2.0843,2.0941,2.0883,2.0846,2.0878,2.0876,2.0946,2.0955,2.0979,2.1075,2.1079,2.1014,2.1018,2.102,2.1022,0,0,0,0,0,0,0,2.0646,2.0661,2.0808,2.0782,2.0785,2.0786,2.0798,2.0861,2.0905,2.0849,2.085,2.0862,2.0948,2.0974,2.0982,2.1081,2.1014,2.1019,2.1023,2.1025,2.1241,2.1243,0,0,0,0,0,0,2.0636,2.0656,2.0805,2.0812,2.0714,2.0791,2.0804,2.084,2.0904,2.0913,2.0864,2.0862,2.0964,2.0975,2.0986,2.1076,2.102,2.1026,2.1029,2.1239,2.1241,2.1244,0,0,0,0,0,0,2.0632,2.065,2.0801,2.0734,2.0753,2.0797,2.0837,2.0843,2.0869,2.0916,2.0923,2.0883,2.0963,2.0977,2.1049,2.108,2.1029,2.1034,2.1236,2.124,2.1242,2.1258,0,0,0,0,0,0,2.0626,2.0648,2.0678,2.0735,2.0757,2.0863,2.0839,2.0846,2.088,2.0878,2.0935,2.0943,2.0963,2.1039,2.1055,2.1088,2.1039,2.1234,2.1238,2.1241,2.1255,2.1262,2.1267,0,0,0,0,0,2.0619,2.0678,2.0679,2.0697,2.0795,2.0864,2.0877,2.0899,2.0882,2.0912,2.0941,2.0941,2.1074,2.1047,2.1064,2.1099,2.1232,2.1237,2.1241,2.1253,2.126,2.1267,0,0,0,0,0,0,2.0624,2.0686,2.0688,2.0767,2.081,2.0865,2.0903,2.0907,2.0956,2.0952,2.0977,2.099,2.106,2.1087,2.1055,2.1174,2.1151,2.1159,2.1154,2.1162,2.1167,2.1159,2.1044,0,0,0,0,0,2.0634,2.0686,2.0737,2.0802,2.0824,2.086,2.0891,2.0904,2.095,2.0968,2.1003,2.1046,2.1098,2.1131,2.1181,2.1259,2.1271,2.1292,2.1298,2.1302,2.1309,2.135,2.136,2.1259,2.1259,2.1259,0,0,2.0656,2.0696,2.0727,2.0804,2.0839,2.0891,2.0875,2.0932,2.097,2.0976,2.1045,2.1073,2.1123,2.1197,2.1231,2.1221,2.1339,2.1308,2.1312,2.1316,2.1356,2.1365,2.1374,2.1262,2.1262,2.1261,0,0,2.0722,2.0758,2.0815,2.0851,2.0904,2.0927,2.0941,2.0995,2.1013,2.1083,2.1088,2.1134,2.1223,2.1258,2.1287,2.1365,2.1366,2.138,2.1411,2.1451,2.1459,2.1466,2.1493,2.1502,2.1387,2.1387,2.1387,0,2.0742,2.0822,2.0844,2.09,2.0933,2.0941,2.0999,2.1032,2.1098,2.112,2.1108,2.1219,2.1253,2.1335,2.1353,2.1378,2.1393,2.1374,2.1456,2.1464,2.1471,2.1496,2.1506,2.1388,2.1388,2.1388,2.1388,0,2.0843,2.0898,2.0938,2.1002,2.1039,2.1096,2.1126,2.1161,2.117,2.1195,2.1265,2.1306,2.1364,2.1384,2.1394,2.1467,2.1459,2.1451,2.1429,2.1481,2.1505,2.1515,2.139,2.139,2.1389,2.1389,0,0,2.0915,2.0991,2.1005,2.1033,2.1092,2.1134,2.119,2.1247,2.1276,2.1322,2.1368,2.1442,2.1435,2.1469,2.1482,2.1518,2.1574,2.1505,2.1507,2.1516,2.1655,2.166,2.1671,2.1576,2.1578,2.1579,2.1651,0,2.0987,2.1088,2.1109,2.1196,2.1246,2.1253,2.1302,2.1343,2.1366,2.1411,2.1437,2.1489,2.1477,2.1496,2.1532,2.156,2.1603,2.1555,2.1618,2.162,2.1604,2.1684,2.1689,2.1755,2.166,2.1662,2.1663,0,2.1084,2.1132,2.1223,2.1274,2.1296,2.1339,2.1392,2.1436,2.1481,2.1496,2.1532,2.1542,2.1599,2.1574,2.1652,2.1619,2.1646,2.1664,2.1667,2.1673,2.1644,2.1691,2.1777,2.1786,2.1679,2.1677,2.1676,0,2.1126,2.1213,2.1279,2.1303,2.1364,2.1394,2.1421,2.1465,2.1497,2.1543,2.1564,2.1616,2.1644,2.1683,2.1706,2.1686,2.1782,2.1759,2.1794,2.1794,2.1814,2.1812,2.1904,2.1832,2.1832,2.1832,2.1832,0,2.1204,2.1259,2.1298,2.1338,2.14,2.1424,2.1484,2.151,2.1549,2.1593,2.1603,2.1644,2.1672,2.1717,2.1735,2.1796,2.1809,2.1821,2.1825,2.182,2.1819,2.1838,2.1833,2.1835,2.1834,2.1834,2.1833,0,2.1261,2.129,2.1361,2.1413,2.1427,2.147,2.1514,2.1552,2.1576,2.1632,2.1646,2.1683,2.1736,2.1763,2.1829,2.1841,2.191,2.1911,2.1894,2.1896,2.1929,2.1925,2.2036,2.2051,2.197,2.1971,2.1972,0,2.1308,2.1351,2.1407,2.1437,2.1465,2.1514,2.1547,2.1571,2.1605,2.1659,2.1691,2.1744,2.1789,2.1873,2.1905,2.1955,2.1957,2.1993,2.1965,2.1958,2.1956,2.1953,2.1957,2.1997,2.1998,2.1999,2.1999,0,2.1388,2.14,2.1447,2.1499,2.1538,2.158,2.1621,2.1646,2.1676,2.1713,2.1768,2.1802,2.187,2.1922,2.1975,2.2001,2.2005,2.2008,2.2018,2.2013,2.2001,2.2006,2.1907,2.2005,2.2004,2.2004,2.2004,2.2003,2.1441,2.1479,2.1523,2.1575,2.1609,2.1647,2.1685,2.1713,2.176,2.1817,2.1828,2.1885,2.1928,2.1999,2.2027,2.2071,2.2063,2.2079,2.2083,2.2086,2.2087,2.1994,2.2081,2.2081,2.208,2.208,2.208,0,2.152,2.1549,2.1597,2.1654,2.1695,2.1695,2.1741,2.1774,2.1825,2.1865,2.1908,2.197,2.202,2.2056,2.2107,2.2136,2.2138,2.2148,2.2146,2.2151,2.2092,2.2077,2.2145,2.2145,2.2145,2.2145,2.2145,2.2145,2.1566,2.163,2.1646,2.1726,2.1754,2.1811,2.1837,2.1871,2.1903,2.1972,2.2014,2.2037,2.2075,2.2128,2.2174,2.2183,2.2201,2.2211,2.2219,2.2163,2.2156,2.2149,2.2135,2.2215,2.2215,2.2275,2.2276,2.2276]}]]